Regional Weather Roundup
Issued by NWS

Home | Current Version | Previous Version | Graphics & Text | Print | Product List | Glossary On
Versions: 1 2 3 4 5 6 7 8 9 10 11 12 13 14 15 16 17 18 19 20 21 22 23 24 25 26 27 28 29 30 31 32 33 34 35 36 37 38 39 40 41 42 43 44 45 46 47 48 49 50
000
ASUS45 KABQ 211101
RWRNM
WEATHER ROUNDUP FOR NEW MEXICO
NATIONAL WEATHER SERVICE ALBUQUERQUE NM
400 AM MST FRI NOV 21 2014

NOTE: "FAIR" MEANS FEW OR NO CLOUDS BELOW 12,000 FEET AGL WITH NO
       SIGNIFICANT WEATHER OR OBSTRUCTIONS TO VISION.

      THIS PRODUCT IS RELEASED AS TWO VERSIONS.  ONE VERSION NEAR
      THE TOP OF THE HOUR CONTAINING PRELIMINARY DATA FROM ALBUQUERQUE
      AND OTHER STATIONS.  A FINAL VERSION WITH ADDITIONAL DATA IS
      ISSUED ABOUT 10 MINUTES AFTER THE HOUR.

NMZ501-503-504-510>518-211200-
NORTHWEST PLATEAU/NORTHCENTRAL MOUNTAINS

CITY           SKY/WX    TMP DP  RH WIND       PRES   REMARKS
FARMINGTON     CLEAR     24  16  71 E6        30.05S WCI  17
SANTA FE       PTCLDY    29  14  53 N9        30.04F WCI  20
TAOS           PTCLDY    21  14  73 N5        30.08S WCI  15
ANGEL FIRE     FAIR       8   4  84 CALM      30.07F

$$
NMZ402-403-502-505>509-211200-
WESTCENTRAL MOUNTAINS/SOUTHWEST MOUNTAINS

CITY           SKY/WX    TMP DP  RH WIND       PRES   REMARKS
GALLUP         MOCLDY    19   8  62 CALM      30.07S
SILVER CITY    CLEAR     32  18  55 N10       30.06S WCI  24

$$
NMZ407-409-411-412-211200-
SOUTHERN DESERTS

CITY           SKY/WX    TMP DP  RH WIND       PRES   REMARKS
LORDSBURG      FAIR      34  16  47 S7        30.03S WCI  28
DEMING         PTCLDY    30  15  53 CALM      30.02F
T OR C         CLEAR     39  18  42 W8        30.03S WCI  33

$$
NMZ519>523-211200-
CENTRAL VALLEYS/CENTRAL HIGHLANDS

CITY           SKY/WX    TMP DP  RH WIND       PRES   REMARKS
ALBUQUERQUE    PTCLDY    35  12  38 NW3       30.05F
DOUBLE EAGLE   PTCLDY    23   7  50 CALM      30.06S
MORIARTY ARPT  FAIR      20  17  88 CALM      30.07F
CLINES CORNERS PTCLDY    31  12  45 W7        30.04F WCI  24
BELEN          FAIR      22   8  54 CALM      30.05F
SOCORRO        FAIR      32  18  55 W6        30.05S WCI  26

$$
NMZ524>526-539-540-211200-
SOUTHCENTRAL MOUNTAINS

CITY           SKY/WX    TMP DP  RH WIND       PRES   REMARKS
RUIDOSO        MOCLDY    34  16  47 W7        30.09F WCI  28

$$
NMZ527>531-211200-
NORTHEAST HIGHLANDS/NORTHEAST PLAINS

CITY           SKY/WX    TMP DP  RH WIND       PRES   REMARKS
LAS VEGAS      CLEAR     30  15  53 SW3       30.03S
RATON          CLEAR     26  21  81 NW3       30.01S
CLAYTON        CLEAR     27  21  78 SW3       29.99F

$$
NMZ532>537-211200-
EASTCENTRAL PLAINS

CITY           SKY/WX    TMP DP  RH WIND       PRES   REMARKS
TUCUMCARI      CLEAR     28  24  85 NW6       30.02S WCI  22
CANNON AFB     PTCLDY    28  23  82 N7        30.01S WCI  21
CLOVIS AIRPORT PTCLDY    27  21  80 N6        30.00F WCI  20

$$
NMZ028-029-538-211200-
SOUTHEAST PLAINS

CITY           SKY/WX    TMP DP  RH WIND       PRES   REMARKS
ROSWELL        CLOUDY    39  21  48 NW5       30.01S
CARLSBAD       MOCLDY    38  25  59 N8        29.99F WCI  32
HOBBS          MOCLDY    36  23  60 CALM      30.02F


$$



USA.gov is the U.S. government's official web portal to all federal, state and local government web resources and services.